This is the latest recevied weather packets stored in our database for station/object KN6DHD. If no packets are shown the sender has not sent any weather packets the latest 1 day(s).
| Time | Temp. | Humidity | Pressure | Rain* | Wind** | Luminosity | Snow |
|---|---|---|---|---|---|---|---|
| 1778036963 | 17.22° C | 80% | 1016.4 hPa | 0 mm | - | 0 W/m² | - |
| 1778036358 | 17.22° C | 80% | 1016.3 hPa | 0 mm | - | 0 W/m² | - |
| 1778036055 | 17.22° C | 80% | 1016.2 hPa | 0 mm | - | 3 W/m² | - |
| 1778035751 | 17.22° C | 79% | 1016.2 hPa | 0 mm | - | 6 W/m² | - |
| 1778035144 | 17.78° C | 78% | 1016.1 hPa | 0 mm | - | 10 W/m² | - |
| 1778034841 | 17.78° C | 78% | 1016.1 hPa | 0 mm | - | 12 W/m² | - |
| 1778034538 | 17.78° C | 78% | 1016 hPa | 0 mm | - | 13 W/m² | - |
| 1778033933 | 17.78° C | 78% | 1016.1 hPa | 0 mm | - | 18 W/m² | - |
| 1778033630 | 17.78° C | 78% | 1016 hPa | 0 mm | - | 23 W/m² | - |
| 1778033327 | 18.33° C | 77% | 1015.8 hPa | 0 mm | - | 26 W/m² | - |
| 1778033025 | 18.33° C | 77% | 1015.8 hPa | 0 mm | - | 30 W/m² | - |
| 1778032722 | 18.33° C | 76% | 1016 hPa | 0 mm | - | 34 W/m² | - |
| 1778032419 | 18.33° C | 76% | 1016.2 hPa | 0 mm | - | 45 W/m² | - |
| 1778032116 | 18.33° C | 76% | 1015.7 hPa | 0 mm | - | 42 W/m² | - |
| 1778031813 | 18.33° C | 75% | 1015.9 hPa | 0 mm | - | 46 W/m² | - |
| 1778031207 | 18.33° C | 73% | 1015.8 hPa | 0 mm | - | 55 W/m² | - |
| 1778030903 | 18.33° C | 72% | 1015.9 hPa | 0 mm | - | 60 W/m² | - |
| 1778030601 | 18.89° C | 72% | 1015.6 hPa | 0 mm | - | 62 W/m² | - |
| 1778030298 | 18.89° C | 74% | 1015.8 hPa | 0 mm | - | 67 W/m² | - |
| 1778029994 | 18.89° C | 73% | 1015.7 hPa | 0 mm | - | 73 W/m² | - |
| 1778029692 | 18.89° C | 73% | 1015.6 hPa | 0 mm | - | 73 W/m² | - |
| 1778029390 | 18.89° C | 74% | 1015.7 hPa | 0 mm | - | 75 W/m² | - |
| 1778028783 | 18.33° C | 74% | 1015.5 hPa | 0 mm | - | 78 W/m² | - |
| 1778028479 | 18.33° C | 75% | 1015.5 hPa | 0 mm | - | 77 W/m² | - |
| 1778028177 | 18.33° C | 75% | 1015.7 hPa | 0 mm | - | 74 W/m² | - |
* Rain latest hour (hover to see other rain measurements)
** Current wind speed in m/s (hover to see current wind gust speed)